GW1392 Weather Reports


Display with metric or nautical units.
time (UTC)temp
F
wind
direction
speed
MPH
gust
MPH
rain 1hr
in
rain 24hr
in
rain mn
in
humidity
%
barometer
mb
20260505001540 49 169 4.0 6.0 0.00 0.00 0.00 85 1005.6
20260505000051 50 189 5.0 7.0 0.00 0.00 0.00 82 1005.6
20260504234546 51 165 5.0 7.0 0.00 0.00 0.00 80 1005.4
20260504233058 51 175 3.0 7.0 0.00 0.00 0.00 81 1005.1
20260504231540 51 197 2.0 5.0 0.00 0.00 0.00 80 1004.9
20260504230040 52 202 6.0 8.0 0.00 0.00 0.00 77 1004.8
20260504224540 54 198 5.0 9.0 0.00 0.00 0.00 73 1004.6
20260504223054 53 195 4.0 7.0 0.00 0.00 0.00 75 1004.5
20260504221538 53 205 6.0 10.0 0.00 0.00 0.00 76 1004.6
20260504220035 53 200 5.0 10.0 0.00 0.00 0.00 77 1004.5
20260504214533 54 192 5.0 8.0 0.00 0.00 0.00 74 1004.4
20260504213048 56 184 5.0 10.0 0.00 0.00 0.00 71 1004.4
20260504211535 57 205 7.0 10.0 0.00 0.00 0.00 67 1004.3
20260504210035 57 198 3.0 6.0 0.00 0.00 0.00 72 1004.2
20260504204540 57 189 0.0 6.0 0.00 0.00 0.00 69 1004.2
20260504203027 57 186 0.0 3.0 0.00 0.00 0.00 71 1004.3
20260504201523 56 192 0.0 3.0 0.00 0.00 0.00 72 1004.4
20260504200024 55 168 0.0 1.0 0.00 0.00 0.00 73 1004.5
20260504194520 54 191 3.0 4.0 0.00 0.00 0.00 75 1004.4
20260504193020 52 193 1.0 4.0 0.00 0.00 0.00 78 1004.6
20260504191518 51 191 0.0 3.0 0.00 0.00 0.00 80 1004.7
20260504190017 51 198 4.0 6.0 0.00 0.00 0.00 81 1004.8
20260504184516 51 221 3.0 6.0 0.00 0.00 0.00 80 1004.9
20260504183016 51 204 3.0 5.0 0.00 0.00 0.00 82 1004.8
20260504181516 52 177 3.0 9.0 0.00 0.00 0.00 79 1004.9
20260504180018 52 188 7.0 11.0 0.00 0.00 0.00 76 1004.8
20260504174517 54 180 5.0 9.0 0.00 0.00 0.00 73 1004.7
20260504173015 52 207 10.0 16.0 0.00 0.00 0.00 77 1004.6
20260504171513 51 197 13.0 18.0 0.00 0.00 0.00 77 1004.6
20260504150107 52 188 11.0 13.0 0.00 0.00 0.00 73 1006.0
20260504081551 40 274 0.0 0.0 0.00 0.03 0.00 76 1007.1
20260504044541 39 30 0.0 0.0 0.00 0.03 0.00 78 1007.0
20260504043030 39 30 0.0 0.0 0.00 0.03 0.00 77 1007.0
20260504041529 40 30 0.0 0.0 0.00 0.03 0.00 77 1007.1
20260504040031 40 30 0.0 0.0 0.00 0.03 0.00 76 1006.9
20260504034524 41 30 0.0 0.0 0.00 0.03 0.03 75 1006.8
20260504033024 41 30 0.0 0.0 0.00 0.03 0.03 74 1006.7
20260504031524 41 30 0.0 1.0 0.00 0.03 0.03 72 1006.6
20260504030022 42 29 0.0 1.0 0.00 0.03 0.03 70 1006.6
20260504024519 43 29 0.0 1.0 0.00 0.03 0.03 68 1006.6
20260504023017 43 26 0.0 0.0 0.00 0.03 0.03 67 1006.5
20260504021517 44 25 0.0 0.0 0.00 0.03 0.03 64 1006.5
20260504020018 45 51 0.0 2.0 0.00 0.03 0.03 62 1006.4
20260504014516 46 309 0.0 3.0 0.00 0.03 0.03 60 1006.3
20260504013015 46 46 0.0 4.0 0.00 0.03 0.03 59 1006.2
20260504011515 47 54 2.0 5.0 0.00 0.03 0.03 59 1006.0
20260504010013 47 58 1.0 5.0 0.00 0.03 0.03 59 1005.7
20260504004515 47 354 1.0 7.0 0.00 0.03 0.03 58 1005.4
20260504003012 47 358 1.0 4.0 0.00 0.03 0.03 55 1005.1